This is the latest recevied weather packets stored in our database for station/object KC5TIL-3. If no packets are shown the sender has not sent any weather packets the latest 10 day(s).
| Time | Temp. | Humidity | Pressure | Rain* | Wind** | Luminosity | Snow |
|---|---|---|---|---|---|---|---|
| 1787490659 | 30.56° C | 19% | 1012.8 hPa | 0 mm | 1.34 m/s, 134° | - | - |
| 1787490360 | 30.56° C | 18% | 1012.8 hPa | 0 mm | 1.34 m/s, 162° | - | - |
| 1787490062 | 30° C | 19% | 1012.8 hPa | 0 mm | 0 m/s | - | - |
| 1787489761 | 30° C | 19% | 1012.8 hPa | 0 mm | 1.79 m/s, 170° | - | - |
| 1787489463 | 30° C | 19% | 1012.8 hPa | 0 mm | 1.79 m/s, 151° | - | - |
| 1787489164 | 30° C | 19% | 1012.8 hPa | 0 mm | 1.79 m/s, 123° | - | - |
| 1787488863 | 30° C | 19% | 1012.8 hPa | 0 mm | 2.68 m/s, 121° | - | - |
| 1787488565 | 30° C | 19% | 1012.8 hPa | 0 mm | 1.34 m/s, 117° | - | - |
| 1787488267 | 30° C | 19% | 1011.8 hPa | 0 mm | 3.13 m/s, 113° | - | - |
| 1787487965 | 30.56° C | 18% | 1011.8 hPa | 0 mm | 2.24 m/s, 120° | - | - |
| 1787487662 | 30.56° C | 18% | 1011.8 hPa | 0 mm | 2.24 m/s, 135° | - | - |
| 1787487410 | 30.56° C | 18% | 1011.8 hPa | 0 mm | 1.34 m/s, 191° | - | - |
| 1787487364 | 30.56° C | 18% | 1011.8 hPa | 0 mm | 1.34 m/s, 191° | - | - |
| 1787487063 | 30.56° C | 18% | 1011.8 hPa | 0 mm | 0 m/s | - | - |
| 1787486765 | 30.56° C | 18% | 1011.8 hPa | 0 mm | 0 m/s | - | - |
| 1787486467 | 30.56° C | 18% | 1011.8 hPa | 0 mm | 0 m/s | - | - |
| 1787486165 | 30.56° C | 18% | 1011.8 hPa | 0 mm | 0 m/s | - | - |
| 1787485867 | 30.56° C | 18% | 1011.8 hPa | 0 mm | 0 m/s | - | - |
| 1787485569 | 30.56° C | 18% | 1011.8 hPa | 0 mm | 1.34 m/s, 184° | - | - |
| 1787485268 | 30.56° C | 18% | 1011.8 hPa | 0 mm | 1.34 m/s, 175° | - | - |
| 1787484969 | 30.56° C | 18% | 1011.8 hPa | 0 mm | 0 m/s | - | - |
| 1787484671 | 30.56° C | 18% | 1011.8 hPa | 0 mm | 1.34 m/s, 135° | - | - |
| 1787484370 | 30.56° C | 18% | 1011.8 hPa | 0 mm | 1.34 m/s, 157° | - | - |
| 1787484072 | 31.11° C | 18% | 1011.8 hPa | 0 mm | 1.34 m/s, 158° | - | - |
| 1787483774 | 31.11° C | 18% | 1011.8 hPa | 0 mm | 1.34 m/s, 172° | - | - |
* Rain latest hour (hover to see other rain measurements)
** Current wind speed in m/s (hover to see current wind gust speed)